SAS501 EKCH-EGLL

Flight info

Callsign SAS501
Flight time N/A
Altitude 38000
Route LANGO DCT RAXLU DCT JUIST DCT ABNED L980 LOGAN
Aircraft A20N/M-SDE2E3FGHIRWXY/LB1

Departure

Time 2026-04-25 19:22
Airport Copenhagen Kastrup Airport (EKCH)

Arrival

Time N/A
Airport London Heathrow Airport (EGLL)
Time Latitude Longitude Altitude Speed Heading
2026-04-25 19:00 55.62646 12.65040 51 ft 0 kts 278°
2026-04-25 19:10 55.62645 12.65049 23 ft 4 kts 277°
2026-04-25 19:10 55.62642 12.65097 25 ft 4 kts 273°
2026-04-25 19:10 55.62640 12.65144 26 ft 4 kts 279°
2026-04-25 19:11 55.62632 12.65186 28 ft 3 kts 321°
2026-04-25 19:11 55.62612 12.65206 25 ft 4 kts
2026-04-25 19:11 55.62588 12.65191 25 ft 4 kts 25°
2026-04-25 19:11 55.62567 12.65182 28 ft 4 kts 359°
2026-04-25 19:12 55.62548 12.65183 27 ft 0 kts 359°
2026-04-25 19:13 55.62551 12.65183 27 ft 2 kts 359°
2026-04-25 19:14 55.62571 12.65182 28 ft 7 kts 359°
2026-04-25 19:14 55.62591 12.65182 27 ft 10 kts 359°
2026-04-25 19:14 55.62591 12.65324 27 ft 21 kts 176°
2026-04-25 19:14 55.62451 12.65326 27 ft 17 kts 180°
2026-04-25 19:15 55.62374 12.65326 27 ft 16 kts 179°
2026-04-25 19:15 55.62296 12.65278 27 ft 11 kts 239°
2026-04-25 19:15 55.62254 12.65197 25 ft 9 kts 189°
2026-04-25 19:15 55.62200 12.65159 28 ft 7 kts 214°
2026-04-25 19:16 55.62149 12.65112 25 ft 9 kts 209°
2026-04-25 19:16 55.62103 12.65057 25 ft 5 kts 213°
2026-04-25 19:16 55.62060 12.65007 25 ft 9 kts 213°
2026-04-25 19:16 55.61983 12.64914 26 ft 19 kts 215°
2026-04-25 19:17 55.61855 12.64769 26 ft 24 kts 212°
2026-04-25 19:17 55.61708 12.64596 26 ft 26 kts 213°
2026-04-25 19:17 55.61560 12.64431 26 ft 23 kts 211°
2026-04-25 19:17 55.61435 12.64287 23 ft 20 kts 213°
2026-04-25 19:18 55.61314 12.64145 24 ft 22 kts 214°
2026-04-25 19:18 55.61183 12.63983 24 ft 22 kts 212°
2026-04-25 19:18 55.61047 12.63831 23 ft 21 kts 211°
2026-04-25 19:18 55.60915 12.63685 26 ft 24 kts 213°
2026-04-25 19:19 55.60771 12.63520 27 ft 26 kts 214°
2026-04-25 19:19 55.60647 12.63371 25 ft 22 kts 215°
2026-04-25 19:19 55.60523 12.63192 23 ft 24 kts 223°
2026-04-25 19:19 55.60434 12.63126 27 ft 22 kts 162°
2026-04-25 19:20 55.60345 12.63336 28 ft 14 kts 80°
2026-04-25 19:20 55.60371 12.63396 28 ft 0 kts 41°
2026-04-25 19:21 55.60377 12.63405 27 ft 9 kts 41°
2026-04-25 19:21 55.60655 12.63831 25 ft 94 kts 41°
2026-04-25 19:22 55.61319 12.64863 37 ft 156 kts 40°
2026-04-25 19:22 55.62125 12.66189 737 ft 157 kts 36°
2026-04-25 19:22 55.63825 12.68807 2263 ft 174 kts 33°
2026-04-25 19:23 55.64637 12.70596 2871 ft 206 kts 62°
2026-04-25 19:23 55.64038 12.76193 4236 ft 275 kts 125°
2026-04-25 19:23 55.62493 12.78320 5127 ft 291 kts 155°
2026-04-25 19:24 55.60498 12.79060 6132 ft 298 kts 183°
2026-04-25 19:24 55.58449 12.78458 7129 ft 300 kts 195°
2026-04-25 19:24 55.54914 12.75100 9186 ft 285 kts 242°
2026-04-25 19:25 55.53080 12.68991 10753 ft 300 kts 251°
2026-04-25 19:25 55.52100 12.65582 11165 ft 322 kts 250°
2026-04-25 19:25 55.51037 12.62028 11907 ft 331 kts 250°
2026-04-25 19:26 55.49934 12.58454 12864 ft 334 kts 250°
2026-04-25 19:26 55.48808 12.54841 13780 ft 337 kts 250°
2026-04-25 19:26 55.47681 12.51252 14588 ft 340 kts 251°
2026-04-25 19:26 55.46512 12.47542 15410 ft 343 kts 252°
2026-04-25 19:27 55.45359 12.43842 16225 ft 345 kts 253°
2026-04-25 19:27 55.44597 12.41374 16764 ft 347 kts 254°
2026-04-25 19:27 55.43041 12.36422 17831 ft 351 kts 255°
2026-04-25 19:27 55.41860 12.32647 18563 ft 353 kts 256°
2026-04-25 19:28 55.40686 12.28831 19192 ft 356 kts 257°
2026-04-25 19:28 55.39508 12.24973 19825 ft 360 kts 256°
2026-04-25 19:28 55.38285 12.21088 20451 ft 366 kts 256°
2026-04-25 19:28 55.37030 12.17166 21056 ft 370 kts 256°
2026-04-25 19:29 55.35764 12.13195 21663 ft 374 kts 256°
2026-04-25 19:29 55.34489 12.09181 22271 ft 378 kts 257°
2026-04-25 19:29 55.33205 12.05121 22869 ft 382 kts 257°
2026-04-25 19:29 55.31907 12.01012 23441 ft 387 kts 257°
2026-04-25 19:30 55.30599 11.96871 23950 ft 390 kts 257°
2026-04-25 19:30 55.29273 11.92682 24450 ft 394 kts 257°
2026-04-25 19:30 55.27934 11.88455 24931 ft 398 kts 257°
2026-04-25 19:30 55.26581 11.84192 25397 ft 401 kts 257°
2026-04-25 19:31 55.25216 11.79902 25856 ft 405 kts 256°
2026-04-25 19:31 55.23838 11.75579 26309 ft 409 kts 256°
2026-04-25 19:31 55.22445 11.71216 26745 ft 412 kts 256°
2026-04-25 19:31 55.21054 11.66870 27159 ft 416 kts 256°
2026-04-25 19:32 55.19634 11.62442 27579 ft 419 kts 256°
2026-04-25 19:32 55.18200 11.57976 27989 ft 422 kts 256°
2026-04-25 19:32 55.16752 11.53479 28400 ft 425 kts 255°
2026-04-25 19:32 55.15769 11.50430 28650 ft 428 kts 255°
2026-04-25 19:33 55.13812 11.44372 29146 ft 432 kts 255°
2026-04-25 19:33 55.12334 11.39807 29511 ft 435 kts 255°
2026-04-25 19:33 55.10836 11.35190 29881 ft 438 kts 255°
2026-04-25 19:33 55.09325 11.30544 30205 ft 441 kts 254°
2026-04-25 19:34 55.07805 11.25877 30556 ft 443 kts 254°
2026-04-25 19:34 55.06309 11.21298 30909 ft 444 kts 254°
2026-04-25 19:34 55.04774 11.16605 31273 ft 445 kts 253°
2026-04-25 19:34 55.03234 11.11911 31707 ft 445 kts 253°
2026-04-25 19:35 55.01698 11.07243 32158 ft 443 kts 253°
2026-04-25 19:35 55.00167 11.02591 32612 ft 442 kts 253°
2026-04-25 19:35 54.98640 10.97961 33038 ft 441 kts 253°
2026-04-25 19:35 54.97113 10.93337 33452 ft 440 kts 253°
2026-04-25 19:36 54.95588 10.88723 33842 ft 439 kts 253°
2026-04-25 19:36 54.93998 10.84159 34177 ft 445 kts 249°
2026-04-25 19:36 54.92242 10.79708 34482 ft 447 kts 248°
2026-04-25 19:36 54.90487 10.75232 34751 ft 447 kts 248°
2026-04-25 19:37 54.88739 10.70759 35037 ft 447 kts 248°
2026-04-25 19:37 54.86990 10.66292 35313 ft 448 kts 247°
2026-04-25 19:37 54.85236 10.61825 35582 ft 448 kts 247°
2026-04-25 19:37 54.83501 10.57418 35846 ft 448 kts 247°
2026-04-25 19:38 54.81740 10.52957 36109 ft 448 kts 246°
2026-04-25 19:38 54.79974 10.48494 36361 ft 448 kts 246°
2026-04-25 19:38 54.78211 10.44046 36622 ft 448 kts 246°
2026-04-25 19:38 54.76444 10.39596 36865 ft 448 kts 246°
2026-04-25 19:39 54.74675 10.35150 37112 ft 448 kts 245°
2026-04-25 19:39 54.73038 10.30644 37344 ft 444 kts 249°
2026-04-25 19:39 54.71431 10.26056 37570 ft 443 kts 249°
2026-04-25 19:39 54.69832 10.21493 37799 ft 443 kts 249°
2026-04-25 19:40 54.68235 10.16931 38011 ft 444 kts 249°
2026-04-25 19:40 54.66635 10.12366 38069 ft 444 kts 248°
2026-04-25 19:40 54.63432 10.03250 38068 ft 443 kts 248°
2026-04-25 19:41 54.60230 9.94162 38067 ft 444 kts 248°
2026-04-25 19:41 54.58103 9.88149 38081 ft 444 kts 248°
2026-04-25 19:42 54.53810 9.76077 38091 ft 444 kts 248°
2026-04-25 19:42 54.50564 9.66995 38098 ft 445 kts 247°
2026-04-25 19:43 54.47310 9.57927 38096 ft 445 kts 247°
2026-04-25 19:43 54.44050 9.48875 38098 ft 446 kts 247°
2026-04-25 19:44 54.40777 9.39818 38110 ft 446 kts 246°
2026-04-25 19:44 54.37527 9.30860 38102 ft 447 kts 246°
2026-04-25 19:45 54.34230 9.21806 38105 ft 447 kts 246°
2026-04-25 19:45 54.30925 9.12760 38103 ft 447 kts 246°
2026-04-25 19:46 54.27617 9.03741 38111 ft 448 kts 245°
2026-04-25 19:46 54.24300 8.94727 38116 ft 448 kts 245°
2026-04-25 19:47 54.20975 8.85728 38119 ft 448 kts 245°
2026-04-25 19:47 54.17643 8.76741 38119 ft 448 kts 245°
2026-04-25 19:48 54.14306 8.67772 38121 ft 448 kts 245°
2026-04-25 19:48 54.10982 8.58868 38124 ft 448 kts 244°
2026-04-25 19:49 54.08742 8.52890 38127 ft 448 kts 244°
2026-04-25 19:49 54.04276 8.41007 38137 ft 447 kts 244°
2026-04-25 19:50 53.99231 8.27654 38143 ft 447 kts 244°
2026-04-25 19:51 53.95862 8.18774 38156 ft 447 kts 243°
2026-04-25 19:51 53.92483 8.09901 38166 ft 447 kts 243°
2026-04-25 19:52 53.89104 8.01059 38171 ft 446 kts 243°
2026-04-25 19:52 53.85917 7.92749 38165 ft 446 kts 243°
2026-04-25 19:53 53.82732 7.84473 38179 ft 446 kts 242°
2026-04-25 19:53 53.79339 7.75684 38181 ft 446 kts 242°
2026-04-25 19:54 53.75940 7.66910 38177 ft 445 kts 242°
2026-04-25 19:54 53.72543 7.58171 38183 ft 445 kts 242°
2026-04-25 19:55 53.69165 7.49514 38185 ft 444 kts 241°
2026-04-25 19:55 53.65761 7.40818 38188 ft 444 kts 241°
2026-04-25 19:56 53.62357 7.32154 38191 ft 443 kts 241°
2026-04-25 19:56 53.58953 7.23519 38189 ft 442 kts 240°
2026-04-25 19:57 53.55542 7.14896 38192 ft 442 kts 240°
2026-04-25 19:57 53.52135 7.06312 38192 ft 441 kts 240°
2026-04-25 19:58 53.48719 6.97736 38187 ft 441 kts 240°
2026-04-25 19:59 53.41961 6.80858 38180 ft 440 kts 240°
2026-04-25 19:59 53.38603 6.72510 38187 ft 440 kts 240°
2026-04-25 20:00 53.35171 6.64009 38188 ft 440 kts 240°
2026-04-25 20:00 53.31810 6.55711 38188 ft 441 kts 239°
2026-04-25 20:01 53.26616 6.42941 38194 ft 441 kts 239°